Wind_Speed
14 20 22 25 25 23 23 22 22 21 20 20 21 21 20 19 18 17 17 17 18 18 17 17 17 16 16 15 15 14 13 12 12 13 13 13 14 15 16 16 16 15 14 15 16 16 15 14 14 14 15 16 17 16 14 12 12 14 14 14 14 14 12 9 7 9 10 12 13 12 13 15 15 17 19 19 18 16 13 13 12 9 8 10 12
11 16 20 24 24 24 24 23 23 23 22 22 22 22 21 20 20 18 17 17 18 18 18 18 17 15 14 13 12 12 11 11 11 11 11 11 12 14 16 16 16 15 16 16 17 17 16 16 15 15 15 16 16 15 13 12 14 16 16 15 13 10 9 7 7 9 9 8 9 11 14 14 10 13 15 14 16 14 10 11 12 10 10 11 12
10 12 17 22 24 25 24 23 24 24 24 24 23 23 22 22 22 20 18 18 18 18 18 17 15 13 13 12 11 11 11 11 11 10 10 10 10 12 15 16 16 16 16 17 17 17 16 16 16 15 14 15 15 15 14 14 15 16 16 14 10 9 9 9 9 10 9 6 8 7 6 6 7 10 12 7 10 10 10 12 12 12 11 13 13
11 11 14 19 22 24 24 24 24 24 24 24 25 24 23 23 23 21 20 18 18 18 18 17 14 13 14 14 14 14 14 13 13 14 14 15 15 15 16 17 18 18 17 16 16 16 16 15 15 15 15 15 15 16 15 15 14 14 13 12 11 10 9 8 7 8 8 5 5 4 4 4 3 5 10 7 6 6 9 12 11 11 11 11 11
12 12 13 16 20 23 25 26 25 26 25 25 26 25 25 24 22 22 21 20 19 18 18 18 17 16 16 15 16 16 16 16 16 17 17 18 18 17 17 17 18 18 16 16 16 15 15 14 14 14 14 15 15 16 16 15 14 13 13 12 11 9 8 7 5 5 6 5 5 3 4 3 2 7 12 11 10 8 9 10 9 10 11 9 9
12 13 13 17 21 24 26 27 26 26 27 26 25 25 24 23 22 22 21 21 20 19 18 19 19 19 17 16 15 14 14 13 12 11 10 10 10 10 10 12 15 17 16 15 15 15 15 14 14 14 14 15 16 16 15 15 14 13 13 12 12 10 9 8 8 8 7 6 7 8 7 6 5 8 7 5 10 12 13 14 11 10 11 11 13
11 12 14 17 21 23 24 27 28 27 27 26 25 24 23 23 23 22 22 21 21 20 20 20 19 18 16 15 14 13 12 10 8 6 6 8 8 7 7 8 10 12 13 14 14 14 14 14 14 14 14 15 15 14 14 14 14 13 12 13 12 10 9 8 9 9 8 8 8 9 12 12 10 7 3 3 7 8 11 14 15 16 16 15 15
11 12 14 16 20 24 25 27 29 28 27 26 25 25 24 23 24 24 23 22 21 21 21 21 19 17 16 15 15 14 13 11 10 9 9 10 11 11 11 10 10 10 11 13 14 14 14 14 14 13 13 14 14 14 13 13 12 12 12 13 12 10 9 8 9 9 9 9 8 8 9 10 10 10 9 7 5 4 7 11 15 18 18 15 14
11 12 13 15 21 26 27 28 28 27 27 27 27 27 26 25 25 24 23 21 21 21 20 20 18 16 15 15 14 12 11 11 11 10 10 10 11 11 12 12 12 12 13 14 14 14 14 13 13 13 12 12 12 12 12 12 11 11 11 11 13 12 10 9 10 10 10 9 8 8 8 7 8 9 11 11 9 7 5 5 9 14 15 16 16
11 11 12 15 21 26 27 27 26 26 27 28 28 28 27 26 25 24 22 21 20 20 19 18 18 17 16 14 13 12 10 9 9 9 9 9 9 10 11 11 12 12 12 13 14 15 15 14 13 12 11 10 11 10 11 11 11 11 10 9 9 10 10 10 10 10 10 9 8 7 7 7 7 7 8 11 12 10 7 5 8 11 10 12 14
10 10 12 14 18 23 26 26 25 25 27 27 27 27 27 26 25 23 22 21 20 19 18 17 17 17 15 14 14 13 11 10 10 9 9 9 10 11 11 11 11 11 11 11 12 14 16 15 12 11 10 10 10 10 10 10 10 11 11 10 9 9 10 10 10 10 10 10 8 7 7 7 7 7 7 8 8 7 6 5 8 12 12 14 15
10 9 10 11 13 18 23 25 25 26 26 26 26 26 26 26 25 24 22 21 20 18 18 17 16 15 14 14 13 12 11 10 10 10 10 10 11 11 11 12 11 11 11 11 10 11 13 14 12 12 11 11 10 11 10 10 9 10 12 12 12 11 11 12 11 10 10 10 9 9 9 9 9 9 8 9 9 8 8 6 8 12 13 14 17
9 8 8 9 10 14 20 23 24 26 26 26 26 26 26 26 26 25 23 21 20 19 18 17 16 16 15 14 12 11 11 11 10 10 10 11 11 11 11 11 11 11 10 10 10 10 9 10 12 12 11 10 9 10 11 10 9 9 10 11 11 11 11 12 12 11 10 10 9 9 8 9 9 8 8 9 9 10 10 8 9 11 10 12 15
7 8 8 8 9 14 19 21 23 25 25 26 26 26 26 26 26 26 24 22 21 20 19 18 17 16 15 14 13 12 11 11 11 11 11 11 11 11 10 10 10 10 10 9 9 9 8 7 9 11 10 9 8 8 10 11 10 10 10 10 10 11 11 11 12 12 11 10 11 10 10 9 9 9 9 9 8 9 10 9 9 10 11 13 14
6 7 7 7 11 15 18 20 22 24 25 26 26 27 27 27 27 26 25 23 21 21 19 18 17 15 14 13 13 12 11 11 11 11 12 12 12 12 12 11 10 10 9 9 9 9 10 10 9 10 9 9 9 9 9 10 11 12 12 11 10 10 11 11 11 12 12 12 12 11 11 11 11 10 10 9 9 9 9 9 8 6 6 9 10
6 7 7 8 12 17 19 20 22 23 25 26 27 27 28 27 27 26 25 23 21 20 18 17 15 14 13 12 11 11 11 12 12 12 13 14 14 13 12 11 10 9 9 9 10 9 10 12 11 9 9 9 10 10 10 10 11 12 13 12 11 11 11 11 11 11 11 12 12 12 12 12 11 11 10 10 10 9 9 9 9 8 6 5 5
6 7 7 8 12 16 19 21 23 24 26 26 27 27 28 27 27 25 24 22 21 19 18 17 15 13 12 11 10 10 11 12 12 13 13 12 11 10 9 9 9 9 9 9 11 11 11 11 11 10 9 10 11 10 10 11 11 11 12 12 11 11 12 12 12 12 11 11 11 11 12 12 10 10 10 10 9 10 10 10 10 10 9 6 3
6 7 7 8 12 16 19 21 23 25 25 26 26 26 26 26 26 25 24 23 21 19 18 17 15 13 12 12 11 11 12 12 12 12 11 9 8 8 8 9 8 9 9 9 10 11 11 10 11 10 9 10 11 11 11 12 12 11 11 12 12 11 12 12 12 12 12 11 11 10 11 11 10 10 10 10 10 10 11 11 11 12 12 10 7
7 7 7 8 12 17 20 21 22 24 24 25 25 25 25 25 24 24 23 22 20 19 18 16 14 14 14 13 12 12 11 12 11 10 9 9 9 10 10 9 9 9 9 9 9 10 10 9 10 10 10 10 11 11 11 11 12 12 11 11 12 12 13 13 12 12 12 12 12 11 11 11 11 11 11 12 13 13 13 13 13 14 14 15 14
8 8 8 9 12 17 20 22 23 24 24 25 25 25 24 24 24 23 22 21 20 19 17 16 16 16 15 13 13 13 12 11 10 8 9 10 9 9 10 10 10 10 11 11 10 10 10 10 9 9 10 10 10 10 11 10 11 12 12 11 11 12 14 14 13 13 13 13 14 13 13 13 12 12 11 11 12 12 13 13 14 15 15 16 17
9 9 9 9 12 18 20 21 23 23 24 25 25 24 24 24 24 23 23 22 20 19 18 17 17 16 15 14 14 14 12 11 11 9 10 11 10 9 11 11 10 11 11 11 11 11 11 11 10 9 10 10 10 10 10 10 11 11 12 12 12 12 13 14 14 13 13 13 14 15 15 15 14 13 13 12 12 12 11 12 13 14 16 16 17
10 9 9 9 12 17 20 22 23 23 24 24 24 24 24 24 24 24 23 22 21 20 19 18 17 16 15 15 15 14 12 11 12 11 11 11 11 11 12 12 11 10 10 10 11 10 10 10 10 10 9 9 10 10 10 10 11 11 12 12 13 13 13 14 14 14 14 14 14 16 16 16 15 15 15 15 15 15 14 14 14 14 16 17 17
9 9 8 9 13 18 20 21 22 23 23 24 24 25 25 25 25 24 23 22 21 20 19 18 17 16 15 16 15 13 12 13 13 12 12 12 12 12 12 12 11 10 9 8 9 10 9 9 9 9 9 10 10 10 11 11 11 12 12 13 13 14 14 14 15 15 15 15 15 15 15 15 15 15 15 15 15 15 15 16 17 17 18 19 18
8 8 8 9 13 16 17 19 22 22 24 25 25 25 25 25 25 24 23 22 21 20 19 18 17 16 16 17 16 14 14 15 13 13 14 14 14 13 11 11 12 11 9 9 8 9 9 9 9 9 10 11 11 11 11 12 12 12 13 14 14 14 14 15 15 16 16 16 16 16 16 16 15 16 16 15 14 15 15 16 17 18 19 21 20
9 10 9 10 12 14 16 19 22 22 24 25 25 25 25 25 25 25 23 22 22 21 19 18 18 18 18 17 16 16 16 15 14 14 16 17 16 14 12 12 12 12 11 10 9 9 10 10 10 10 11 11 12 12 12 13 13 13 14 14 15 15 15 15 15 16 16 16 16 17 17 16 16 18 18 17 16 16 16 16 17 18 18 19 20
10 11 10 11 11 12 15 19 21 23 24 25 25 25 25 25 25 24 24 23 22 21 19 19 19 20 20 18 17 17 17 16 15 15 16 17 16 14 14 13 12 11 10 10 10 10 11 10 11 11 11 12 12 12 13 13 13 14 15 15 16 16 16 16 16 16 17 17 18 18 19 18 19 21 21 21 20 20 19 19 20 20 21 21 21
9 10 10 10 11 11 14 18 21 22 24 25 25 26 26 25 25 24 24 24 23 21 21 20 21 21 21 20 19 18 17 16 16 17 17 17 15 14 13 12 11 10 10 11 12 12 11 11 11 12 12 12 12 13 14 14 14 15 15 16 17 17 17 17 18 18 18 19 20 20 20 21 21 22 22 22 22 22 22 23 24 25 25 24 25
8 9 10 11 12 11 12 17 20 22 23 24 25 25 25 25 25 24 24 24 23 23 23 22 21 21 21 21 20 17 16 17 19 20 18 16 14 12 12 11 11 12 12 12 12 13 13 13 13 13 13 12 13 13 14 14 15 15 16 17 18 18 19 19 19 20 21 21 22 22 23 24 24 24 24 24 25 25 25 26 27 27 26 27 27
8 10 11 12 12 11 12 16 20 21 23 24 24 25 25 25 25 25 25 24 24 24 24 23 22 21 21 21 19 17 18 20 21 19 17 14 12 11 12 12 13 14 13 13 13 13 14 14 14 15 15 15 15 15 15 15 16 17 18 18 18 19 20 21 21 22 22 23 24 24 25 26 26 27 27 28 28 28 29 29 29 28 27 27 27
10 11 11 12 12 12 12 15 19 21 23 24 24 25 26 25 26 26 26 25 25 25 25 24 23 21 20 19 19 20 21 22 21 18 15 13 12 13 13 14 14 14 13 13 14 14 14 15 16 16 16 17 17 17 18 17 17 17 19 20 20 21 22 23 23 24 25 26 26 27 27 28 28 28 29 30 31 31 31 30 29 29 28 28 27
10 11 11 11 11 11 11 14 19 23 24 25 25 25 26 26 26 27 27 26 25 25 24 24 23 22 21 20 21 22 23 22 19 16 13 12 14 14 15 15 15 14 14 14 14 14 14 14 15 16 16 17 18 19 19 18 17 17 19 20 21 22 23 24 25 26 27 27 28 28 29 29 30 30 30 31 31 31 30 28 28 28 28 29 29
9 10 10 10 11 11 12 15 20 24 25 26 26 26 26 26 27 27 27 26 26 25 23 23 22 22 22 22 23 23 22 21 18 15 13 14 16 16 16 16 16 14 13 13 13 13 13 14 15 16 17 17 18 19 19 18 18 19 20 21 22 22 23 24 25 27 28 28 29 29 29 30 31 30 30 31 31 30 29 29 28 28 29 30 30
8 8 8 9 10 12 15 19 22 25 27 28 28 27 27 27 27 27 26 26 26 25 23 23 22 22 23 23 23 23 22 20 17 15 15 16 17 17 17 16 15 13 13 13 13 13 14 15 16 17 18 19 19 20 19 18 19 20 20 21 22 23 23 24 25 26 27 27 27 28 28 29 29 29 29 31 32 32 32 31 30 30 31 31 32
6 7 7 8 9 11 16 20 23 25 27 27 27 27 26 26 26 27 27 26 25 25 24 23 22 23 24 24 24 22 20 18 16 16 17 18 18 17 17 15 14 13 13 13 14 15 16 17 17 17 18 19 20 20 20 19 19 20 20 21 23 24 25 25 26 26 26 26 25 26 26 27 26 26 27 29 30 32 32 32 32 32 33 34 34
7 8 8 7 8 10 14 18 21 24 25 25 25 26 26 25 26 27 27 26 25 25 24 23 23 23 24 24 23 21 19 18 18 18 19 18 18 17 16 15 14 13 13 13 13 14 15 16 16 17 18 20 21 21 19 18 19 20 20 21 23 25 25 26 27 28 28 29 29 28 29 30 29 28 28 27 28 29 30 31 32 33 34 36 37
8 8 9 9 11 14 16 19 21 24 26 26 26 27 27 26 26 27 26 25 25 24 24 23 24 24 24 24 22 21 20 19 19 19 19 19 18 17 16 14 14 13 13 13 14 15 16 17 17 17 19 21 23 22 20 19 20 20 21 22 23 25 25 26 28 28 28 29 29 29 30 30 30 31 31 29 29 29 30 30 32 33 34 36 38
9 9 10 11 13 16 18 20 23 25 27 27 27 27 27 26 25 26 25 25 24 24 24 24 24 24 24 23 21 21 21 21 20 20 20 19 18 17 16 15 14 14 14 14 15 16 17 18 19 19 20 22 24 23 21 20 20 20 21 22 24 25 26 27 28 28 28 29 29 30 30 30 30 31 31 29 28 30 31 31 31 31 32 34 36
11 9 7 7 11 15 19 22 25 25 26 27 28 28 28 26 25 25 25 24 24 24 24 24 24 24 23 22 22 22 22 22 21 21 20 19 18 16 15 14 14 14 15 15 16 17 17 18 19 20 21 23 25 25 23 21 20 19 20 21 23 24 26 27 28 28 28 29 30 30 30 31 33 34 32 30 30 30 31 32 31 30 31 32 33
11 9 7 9 12 15 18 22 24 24 25 27 28 29 27 25 25 25 24 24 24 25 25 24 24 23 21 21 22 22 22 22 22 21 20 18 17 16 15 14 14 15 15 16 16 17 18 19 20 20 21 22 24 26 25 22 20 19 20 21 22 23 25 26 27 27 27 28 29 30 29 29 31 32 31 31 31 31 33 34 34 33 32 33 34
8 7 8 10 13 16 18 21 23 24 25 27 28 27 26 25 24 23 23 23 24 24 24 23 21 20 20 20 21 22 23 22 22 21 19 17 17 16 15 15 15 15 16 16 16 17 18 19 20 20 21 23 25 27 27 26 23 22 22 23 24 25 26 27 27 27 27 28 29 30 31 30 30 30 30 32 33 34 35 36 36 34 34 33 34
8 8 9 10 13 16 18 20 22 24 25 27 27 26 24 23 22 22 23 23 23 22 21 20 19 19 19 20 21 22 22 21 20 19 17 17 16 16 16 15 15 15 16 17 18 18 19 21 22 23 25 26 27 29 30 28 26 25 24 24 26 27 27 28 28 28 28 29 30 30 31 30 29 29 30 32 33 34 35 36 36 36 37 37 35
9 10 12 13 13 14 15 16 20 23 25 26 26 25 22 21 21 21 22 21 20 19 19 19 19 19 20 20 21 20 20 19 18 18 17 17 16 15 16 15 15 16 16 18 19 20 21 23 25 27 28 29 29 30 31 30 29 27 26 25 27 28 28 28 29 29 30 30 31 31 31 29 28 28 29 31 32 33 34 35 34 34 35 36 35
13 13 14 15 14 13 14 16 19 22 24 25 25 23 20 20 21 20 19 18 18 18 18 18 19 19 20 20 20 19 19 18 17 17 16 16 16 15 15 15 15 16 17 19 21 21 22 24 27 28 29 30 30 29 29 29 27 26 25 25 26 27 26 27 29 30 30 31 31 32 32 30 28 28 29 30 32 33 34 34 33 32 32 32 32
17 16 16 15 15 13 13 15 18 21 22 23 24 22 19 20 20 18 17 17 17 18 18 18 19 19 19 20 19 19 18 17 17 16 16 16 15 15 15 15 15 16 17 19 21 21 21 23 25 27 28 28 27 26 26 26 26 25 25 25 25 25 25 26 29 30 30 30 31 31 31 30 29 30 32 33 34 34 34 33 31 29 28 28 26
20 16 15 15 16 14 15 16 17 20 21 21 22 21 19 18 18 16 17 18 18 18 18 19 19 20 19 19 18 18 18 17 17 16 16 16 16 15 15 16 16 17 18 20 21 21 21 22 24 25 26 26 25 25 26 26 26 26 25 24 24 25 25 25 27 29 29 29 29 29 29 30 30 31 31 31 32 31 31 31 31 28 25 24 24
21 15 14 14 14 14 15 16 16 18 20 20 20 20 19 18 17 16 18 18 18 19 19 19 19 19 19 19 18 17 17 17 16 16 16 16 16 16 16 16 17 18 19 20 21 21 22 23 23 24 26 26 25 25 27 27 27 27 27 26 25 24 24 24 26 28 29 29 29 30 30 31 32 32 32 32 32 32 31 32 33 31 29 28 27
21 16 14 13 13 13 14 15 15 17 19 19 19 19 18 17 16 16 17 17 18 19 19 19 19 19 18 18 18 17 16 15 15 16 16 17 17 17 17 18 19 19 19 20 21 22 22 23 24 25 26 26 25 25 27 27 27 26 26 26 25 25 24 24 25 26 27 27 28 29 30 32 33 34 34 34 35 34 33 32 33 32 32 33 32
19 14 13 13 13 13 13 13 13 15 17 18 18 18 17 16 17 16 16 17 18 18 19 18 18 18 17 17 17 16 16 15 15 16 17 18 19 19 20 21 22 22 22 22 22 23 24 25 25 25 25 25 24 25 26 26 25 25 26 26 26 26 26 26 27 28 28 28 28 29 29 30 31 31 31 31 32 32 31 32 32 32 33 34 34
15 11 11 12 11 11 11 11 11 13 16 17 17 17 17 17 17 16 16 17 17 17 17 17 16 16 16 16 15 15 15 15 15 16 17 18 20 20 22 23 24 24 24 25 25 26 27 27 27 26 25 24 24 25 26 25 25 25 26 27 27 28 29 29 30 30 29 29 29 29 29 28 27 27 28 28 28 29 29 31 31 31 31 32 32
10 7 7 8 7 8 9 10 10 11 14 15 16 16 17 17 17 17 17 17 17 17 16 16 16 16 16 15 15 15 15 15 16 16 16 18 19 20 21 23 24 25 25 25 25 27 28 29 29 29 29 28 29 30 30 27 27 27 27 28 28 28 28 28 27 25 26 27 26 25 26 26 25 25 26 26 26 27 27 29 30 30 30 30 31
8 4 4 4 4 5 7 8 8 10 12 14 15 15 15 16 17 17 17 17 17 16 16 15 16 16 16 16 16 16 16 16 16 17 17 17 18 19 20 20 21 22 24 24 25 27 28 28 29 30 31 32 34 34 33 30 29 28 26 26 25 24 24 26 26 25 26 26 24 23 24 24 23 24 25 26 26 27 27 28 28 29 30 30 30
Wind_Direction
192 188 190 192 193 192 191 191 190 191 193 193 194 194 193 192 194 200 202 201 201 202 206 212 215 216 218 220 223 229 236 238 240 242 242 240 239 239 241 243 248 253 260 267 272 274 272 268 264 263 265 268 272 275 275 268 253 244 247 262 275 280 286 292 285 269 272 290 305 308 303 300 297 292 287 276 268 267 261 259 265 259 251 266 288
183 182 184 185 187 188 188 188 189 191 193 194 195 196 197 196 197 200 202 201 203 204 207 214 218 216 214 216 219 222 228 229 230 237 245 246 241 236 236 241 247 253 259 264 268 270 269 269 267 264 263 264 269 273 270 260 249 247 256 266 271 274 279 276 268 266 268 291 315 313 303 304 306 304 303 282 256 251 259 262 258 252 256 272 283
181 179 181 181 181 183 185 187 190 192 194 195 196 197 197 199 200 200 202 204 206 207 206 210 215 214 211 211 211 212 214 218 219 221 223 223 224 228 233 240 248 255 258 259 259 261 263 263 264 262 259 258 261 261 258 255 255 256 260 262 258 255 262 271 274 262 248 281 318 307 299 323 315 303 314 293 240 245 269 265 257 253 256 268 275
186 182 179 178 178 181 185 188 191 192 193 195 196 197 198 201 202 201 201 204 207 208 206 204 204 206 208 209 211 212 212 213 218 223 226 229 232 239 245 249 253 254 252 251 251 254 257 259 259 256 252 251 252 254 252 251 254 258 255 243 239 248 260 275 278 257 244 266 305 303 314 319 285 327 347 319 260 277 277 255 253 258 253 260 271
188 185 176 177 182 185 188 190 191 192 193 195 196 198 199 200 203 202 201 202 204 207 207 203 200 202 206 211 217 222 227 232 237 242 244 247 248 250 253 251 250 250 247 245 248 252 255 257 257 253 248 246 246 250 252 249 248 254 252 233 224 235 249 261 264 270 280 266 245 268 322 298 242 351 346 306 287 308 292 272 273 268 253 250 267
190 185 179 183 186 186 189 190 190 192 195 196 197 199 199 199 201 201 200 200 201 202 203 203 205 209 213 218 223 227 233 239 242 247 244 242 245 248 249 242 239 242 245 245 247 249 252 253 254 252 251 247 246 248 250 249 245 246 250 235 221 227 242 248 247 261 286 274 245 241 254 264 291 336 345 297 299 301 288 289 291 284 274 264 267
192 186 185 187 186 184 187 190 190 192 195 196 195 196 197 197 197 196 196 196 197 198 201 204 206 210 213 214 215 214 218 221 221 227 220 217 221 221 222 226 232 242 248 250 250 251 250 248 248 248 250 249 246 246 248 249 244 243 247 236 224 225 230 235 241 251 261 262 259 248 247 258 273 294 292 278 303 294 283 289 288 293 300 292 278
190 189 189 188 187 185 186 190 191 192 193 193 191 191 191 191 191 192 193 194 198 201 203 206 207 207 207 205 206 210 215 218 220 227 227 228 234 235 234 235 239 246 250 251 253 253 251 247 246 246 246 246 245 243 244 246 242 241 242 229 218 215 219 234 243 244 245 249 258 259 255 256 255 259 266 275 292 293 291 293 289 293 299 298 292
192 192 191 190 188 186 185 187 189 190 190 188 186 186 186 187 187 189 191 193 198 201 203 205 203 198 198 199 202 209 215 219 224 233 238 241 245 246 247 245 243 245 246 248 249 247 244 242 244 246 244 243 243 242 241 243 238 235 238 227 219 222 230 243 243 234 233 240 251 262 264 262 259 258 261 267 271 278 287 292 293 292 289 287 290
196 194 195 196 186 180 180 180 182 184 182 181 181 183 184 185 185 185 187 189 193 196 197 198 195 192 191 192 195 197 201 207 216 226 232 238 243 244 245 246 246 247 247 248 246 241 235 234 238 242 242 237 237 238 235 235 232 228 232 228 222 226 228 231 233 228 226 232 241 252 260 266 275 273 261 259 261 268 276 286 295 297 298 296 294
200 195 195 191 174 167 169 168 169 171 172 174 177 180 182 183 183 181 181 185 189 191 192 193 193 193 191 191 193 194 197 203 213 223 228 234 242 245 245 246 246 246 247 245 245 242 232 227 228 230 229 225 226 232 233 235 235 232 231 229 229 231 222 217 223 225 218 221 231 237 245 255 267 276 279 281 285 289 291 299 310 311 312 309 303
194 189 181 166 150 152 157 158 161 164 168 172 175 177 179 179 178 175 175 181 185 186 187 186 186 184 183 187 190 193 200 209 217 225 231 236 242 246 246 247 246 244 244 241 244 246 234 222 218 218 221 225 228 230 231 232 234 234 231 230 234 234 225 218 219 223 221 224 232 235 239 244 254 265 275 285 293 299 301 301 307 309 304 298 298
177 169 161 152 147 153 155 157 162 166 169 172 173 174 174 174 174 171 172 177 179 179 178 176 176 178 181 186 190 195 203 210 217 224 231 237 241 244 244 243 241 240 241 240 240 238 229 219 216 214 216 222 225 226 224 223 227 230 229 228 228 224 221 219 217 220 224 224 222 223 230 238 245 251 260 269 275 284 291 293 295 296 291 291 294
164 158 160 162 162 163 163 164 167 169 172 172 171 172 170 170 171 169 168 172 174 174 174 173 175 181 186 189 192 196 202 208 215 220 226 231 233 234 235 234 236 238 238 239 237 230 227 225 213 204 205 211 215 220 222 222 226 227 225 224 224 220 218 217 216 217 219 221 219 223 232 239 241 243 252 261 266 273 278 282 292 293 286 288 291
165 163 169 174 169 169 169 170 171 171 171 171 170 170 168 167 169 168 167 170 174 174 174 175 179 185 190 194 197 202 208 213 217 220 222 224 224 223 224 224 226 231 233 239 242 238 235 228 211 199 203 211 217 223 225 224 225 225 222 222 221 218 216 217 218 218 220 224 228 230 233 237 240 242 246 251 256 264 272 277 290 302 291 287 288
175 173 175 177 173 173 173 172 173 173 171 171 170 169 168 167 168 169 169 171 174 175 176 176 180 186 190 197 205 210 215 216 214 214 216 218 221 224 227 227 229 232 237 241 239 232 225 218 212 210 214 218 220 224 226 225 225 223 219 219 220 216 215 216 216 218 223 228 233 235 237 239 240 241 243 245 248 254 261 269 280 292 293 288 288
184 182 178 176 175 176 177 175 175 174 173 172 171 171 169 167 168 170 171 173 173 175 176 176 178 185 191 199 206 209 211 210 207 209 215 220 223 227 229 228 230 230 231 233 226 218 211 207 208 214 222 226 225 223 223 220 217 218 214 213 217 218 219 220 220 223 227 231 235 236 238 239 236 235 239 240 244 250 254 258 263 273 279 280 285
183 183 177 176 178 179 179 179 178 176 175 173 172 172 171 170 170 170 171 173 174 174 176 178 179 183 189 194 198 202 205 203 203 210 215 214 210 207 206 208 213 217 220 222 216 211 211 211 214 220 223 224 223 220 219 215 211 212 212 213 217 218 220 222 224 226 226 226 229 230 232 235 232 232 235 236 240 244 247 250 253 258 265 268 274
186 184 182 181 182 182 180 179 178 176 175 173 171 171 170 171 172 173 174 175 175 175 176 179 180 183 187 191 195 200 203 203 204 209 208 199 200 204 201 203 208 209 211 213 211 212 218 222 226 227 220 217 218 216 214 213 212 212 212 215 220 219 219 221 223 226 225 225 227 226 227 229 229 233 238 241 246 248 250 253 253 254 257 262 268
196 190 190 186 183 184 181 179 177 175 174 171 169 169 169 171 173 174 175 174 175 176 176 178 180 183 187 189 194 198 200 203 201 198 198 195 197 203 199 200 206 208 210 213 213 216 218 219 219 216 210 207 210 210 208 208 209 212 214 216 219 220 221 222 224 226 228 227 226 224 226 228 229 234 239 243 247 251 253 252 252 254 254 256 263
202 193 192 187 183 183 181 179 176 173 172 171 170 170 169 171 173 174 174 174 176 176 177 180 181 185 188 187 194 200 199 201 195 186 193 195 191 194 197 199 203 210 215 216 217 218 217 214 207 201 199 199 201 203 205 208 210 212 217 219 221 223 224 224 224 227 228 228 227 226 227 230 232 233 234 237 242 246 252 253 253 256 256 255 259
202 195 190 184 182 181 178 176 174 171 172 172 173 173 173 174 175 176 177 177 178 177 177 180 181 186 190 189 197 203 196 195 193 188 194 196 193 198 203 202 199 205 212 211 209 207 203 201 197 192 195 198 201 206 209 212 215 218 222 224 225 226 226 226 226 227 229 231 231 229 229 231 231 233 235 239 243 243 245 251 253 256 260 258 257
196 189 188 185 183 181 176 174 174 174 175 175 176 177 177 178 178 178 179 178 180 180 179 180 181 186 190 191 197 198 190 191 193 192 196 195 194 202 209 207 198 194 198 198 199 194 186 190 193 193 199 203 205 212 216 217 219 222 225 228 229 229 229 230 231 231 231 232 233 231 229 229 228 232 239 242 246 247 247 251 254 254 259 261 258
186 184 188 183 181 179 177 178 179 179 179 179 179 180 179 180 180 180 180 179 180 180 180 181 182 186 190 191 193 190 188 192 193 194 197 194 196 202 208 207 198 190 188 190 198 200 192 194 201 203 208 212 213 217 221 222 223 227 229 229 231 233 233 233 234 235 235 234 235 234 231 230 231 236 243 242 241 247 250 252 256 256 257 261 261
183 186 186 181 183 184 184 186 185 183 182 181 181 181 181 181 181 180 180 179 179 180 181 183 184 186 189 190 189 189 191 191 190 195 198 198 203 207 208 210 207 202 198 195 200 206 204 205 210 213 216 219 221 224 227 229 230 232 234 232 232 234 236 237 237 237 237 237 238 239 237 236 238 242 245 243 241 244 248 250 254 257 257 260 261
191 189 187 187 190 191 189 189 187 185 184 183 182 182 182 182 181 181 180 179 180 182 183 184 185 187 189 188 187 190 194 191 191 200 205 207 213 215 212 213 212 208 204 202 206 210 212 214 217 220 223 227 229 231 234 236 235 236 238 236 236 238 239 241 243 243 243 244 243 244 244 244 246 249 248 247 245 245 246 248 250 253 256 259 261
196 191 190 192 194 195 194 191 189 188 185 184 184 182 181 180 181 182 182 181 181 183 184 185 187 189 189 189 189 192 195 194 196 204 209 213 219 219 213 206 202 202 204 204 207 210 211 214 217 221 227 231 234 236 238 240 239 239 241 241 240 242 244 245 246 246 247 248 248 248 248 248 250 252 251 248 246 246 248 252 254 256 257 258 258
197 193 193 195 197 197 195 192 190 188 186 185 185 183 182 181 181 181 182 182 182 183 185 186 187 189 191 192 193 195 197 197 200 206 211 218 222 215 203 195 195 201 205 205 208 210 213 215 216 220 223 227 231 234 236 238 239 241 243 244 244 244 245 247 248 249 249 250 251 250 251 252 251 252 252 250 249 249 253 257 259 259 257 255 256
205 202 200 200 200 197 194 192 190 187 184 183 182 182 181 181 182 182 182 183 183 183 185 186 187 189 193 194 193 193 197 200 202 207 215 223 218 201 194 198 203 205 205 206 209 212 216 220 222 225 226 228 232 234 235 235 237 239 241 243 245 245 246 247 248 250 250 251 252 252 253 254 254 253 254 253 253 254 257 260 261 259 255 252 251
215 212 209 205 203 200 194 191 190 188 186 184 181 181 181 180 181 182 182 183 183 184 185 187 189 190 191 194 194 197 201 202 204 212 222 220 205 196 198 204 207 207 208 211 215 217 222 228 231 234 235 236 238 239 240 241 242 245 247 248 251 252 253 253 252 253 255 255 256 256 256 257 257 257 257 257 258 258 258 259 259 257 253 249 247
228 221 216 209 205 200 193 192 194 192 188 185 183 181 181 181 181 182 183 184 184 185 186 189 191 192 191 192 195 199 201 204 210 221 224 208 198 200 204 207 210 213 214 219 225 231 236 240 242 243 245 246 247 247 247 248 250 252 254 256 258 259 259 259 258 258 258 259 260 260 260 261 260 259 259 259 258 256 253 253 254 253 251 248 246
243 231 220 213 208 201 197 198 196 192 188 186 184 180 179 181 182 182 182 183 184 185 186 189 191 192 193 196 198 200 202 208 219 225 215 202 202 205 207 211 216 220 223 228 234 240 244 246 246 249 253 257 259 258 256 254 255 255 255 256 258 258 257 257 258 259 259 259 260 261 263 263 261 258 257 257 256 252 249 249 252 252 251 249 247
257 248 230 217 213 208 205 201 195 192 191 188 184 181 181 182 182 180 180 181 184 185 186 188 190 192 196 199 202 203 207 215 223 218 207 204 207 210 213 219 224 228 230 232 237 241 244 249 253 258 264 266 268 267 263 258 257 258 257 257 257 256 256 255 255 256 257 257 257 257 259 260 259 257 256 256 256 254 252 251 252 252 251 249 249
282 276 256 233 221 213 207 201 196 193 190 187 185 183 183 182 180 180 180 181 183 185 187 189 192 196 200 201 204 207 213 219 218 211 207 208 211 215 220 224 228 230 233 237 243 249 253 257 260 264 267 269 270 271 268 262 259 259 259 258 258 257 257 256 256 255 255 256 256 256 257 258 258 256 255 255 254 254 253 252 251 250 249 248 248
290 280 268 244 217 203 196 192 190 188 183 181 182 181 179 179 179 179 180 182 184 185 188 192 194 198 201 203 206 210 214 215 212 208 210 212 215 220 223 227 231 235 241 247 254 259 263 266 267 268 269 271 273 274 270 263 260 260 260 260 259 258 258 257 257 256 256 256 257 257 258 258 257 256 255 254 253 253 252 251 249 249 249 248 248
278 274 265 242 215 198 189 183 180 179 177 177 178 177 176 176 178 179 181 183 186 187 190 194 197 201 204 206 209 212 212 212 209 209 211 214 217 222 226 230 236 242 248 253 257 260 263 265 267 268 269 272 277 277 270 263 262 263 262 261 259 259 258 258 258 257 256 256 256 256 256 256 256 256 256 254 253 254 253 250 247 248 250 250 251
287 286 270 245 219 199 186 179 174 174 176 177 177 176 175 173 175 179 181 184 188 191 193 198 202 205 207 209 210 210 210 209 209 210 213 215 219 224 229 234 241 247 252 255 258 260 263 265 267 268 268 272 278 280 276 268 265 265 264 262 260 259 259 259 259 258 257 256 256 254 255 257 257 257 256 254 252 252 252 250 247 247 249 251 253
287 283 262 225 203 190 182 177 173 174 178 178 177 176 175 173 175 179 182 185 190 194 198 202 206 208 209 210 210 210 210 209 210 212 216 219 223 229 235 239 245 250 254 258 260 262 265 266 267 270 271 273 277 281 280 272 267 266 264 262 261 261 260 259 259 259 258 257 257 256 254 255 257 257 255 255 254 252 252 252 251 251 251 251 253
277 266 239 208 190 180 176 175 173 173 177 179 178 177 175 173 175 179 182 186 192 198 202 206 208 209 210 211 209 210 211 211 213 216 219 224 227 232 239 243 246 250 256 260 262 264 267 270 272 273 274 273 275 280 280 274 268 266 264 262 262 262 260 259 259 259 259 258 258 258 255 253 254 256 255 254 253 251 249 249 250 251 251 251 253
271 259 236 209 189 176 173 175 176 177 178 179 179 177 175 176 177 179 185 191 198 203 205 207 208 208 209 210 209 210 212 214 217 220 224 228 231 235 240 242 245 250 256 261 263 265 268 272 273 273 272 271 272 276 279 277 271 267 264 263 262 260 259 259 259 258 258 259 258 258 256 254 254 256 256 255 254 253 249 247 245 245 246 250 253
268 259 232 209 196 188 184 183 182 179 177 179 178 176 176 178 179 184 193 200 204 206 205 204 205 205 205 207 209 212 214 217 221 224 227 231 234 238 241 243 247 252 256 261 264 265 266 268 270 269 269 270 270 272 276 278 273 268 265 262 261 259 258 258 259 258 257 257 258 257 257 256 255 256 257 257 258 259 257 253 248 245 248 254 255
261 253 232 212 203 197 190 186 184 181 179 180 178 176 177 178 183 192 201 204 204 204 203 202 202 202 204 206 209 214 217 221 224 225 228 233 237 241 243 246 251 255 260 264 266 267 267 269 272 272 271 272 273 272 275 278 276 271 265 262 261 260 259 258 257 257 256 256 257 258 258 257 256 256 257 257 259 261 261 261 258 255 256 258 257
262 248 234 216 203 197 191 185 183 183 182 181 180 178 178 182 191 199 202 202 203 202 201 200 200 202 206 208 211 216 219 221 224 227 231 235 238 241 245 251 255 259 263 266 267 269 270 271 273 273 273 274 275 275 276 278 278 274 268 263 262 261 261 259 256 256 256 257 258 260 259 259 258 258 259 259 260 261 261 262 263 263 262 262 262
271 252 236 216 202 197 189 183 183 184 184 184 184 181 181 189 197 200 198 199 201 200 199 200 201 204 209 211 214 217 219 222 226 229 233 236 239 243 248 253 257 260 262 265 268 271 271 270 271 272 274 276 278 280 280 280 280 279 272 266 264 264 263 262 261 260 260 260 260 261 261 260 259 259 259 258 259 262 263 263 265 268 269 270 271
284 259 234 214 206 197 184 179 184 186 187 189 190 188 188 194 198 199 199 199 198 198 200 202 204 208 210 212 215 218 220 225 229 231 235 240 242 246 250 254 256 256 257 261 265 267 266 265 266 267 270 274 275 277 278 278 278 278 273 268 267 267 266 265 265 265 265 264 264 265 265 265 263 262 263 263 264 265 267 269 271 275 276 274 272
288 257 228 213 206 197 185 180 184 189 192 194 197 198 199 199 199 200 202 201 199 200 202 205 207 210 211 213 216 219 222 227 232 236 241 246 247 248 252 255 255 254 254 256 260 262 262 262 262 264 267 270 271 272 273 274 274 274 273 272 272 271 270 269 268 268 268 268 267 268 268 269 269 268 269 270 270 270 271 272 272 273 272 271 268
288 255 228 209 198 195 192 185 184 191 196 199 202 206 207 205 203 203 203 202 202 202 204 206 208 210 212 215 218 221 224 228 234 238 243 247 248 248 249 250 250 248 249 251 253 256 257 258 260 263 265 267 268 268 269 271 272 272 273 275 276 276 275 275 274 273 273 272 270 268 268 269 270 270 270 269 269 270 270 269 268 267 267 267 266
288 253 224 208 203 204 200 191 188 193 200 205 207 209 209 208 207 206 204 202 204 205 206 209 210 212 215 219 223 226 228 231 236 240 243 245 247 247 246 249 251 251 249 249 250 252 254 257 259 263 266 267 266 265 267 270 272 272 273 273 273 273 273 273 273 275 277 277 275 272 270 269 268 267 266 264 263 263 263 263 263 263 262 263 263
284 247 224 216 214 211 202 196 196 197 203 209 212 212 213 213 211 211 209 206 206 208 209 211 212 215 218 222 226 230 233 235 238 241 245 249 250 250 249 253 258 258 256 255 254 254 257 260 261 262 263 263 262 264 268 272 273 272 270 267 265 265 265 267 268 270 270 268 267 265 263 262 261 260 259 259 258 257 258 259 260 260 259 258 258
288 254 236 228 224 220 211 202 199 202 206 210 214 217 219 219 218 217 215 211 209 209 210 213 214 217 220 223 227 232 235 237 240 241 244 250 254 253 252 253 258 262 262 259 256 256 261 264 264 264 265 264 266 271 275 274 272 271 270 267 266 266 264 264 265 268 266 263 260 257 256 254 252 252 253 255 255 255 254 255 256 256 256 254 253
310 286 259 247 237 230 219 207 204 208 210 213 218 222 224 225 226 224 221 219 215 212 213 217 219 222 225 226 230 234 236 238 241 243 244 248 252 254 253 251 254 260 263 260 257 259 264 265 265 266 268 269 271 275 276 271 268 271 273 271 270 269 267 266 268 273 274 270 265 261 260 257 254 252 252 253 253 253 252 252 254 254 253 251 250
Height
812 815 817 819 822 824 826 828 830 832 833 835 836 838 839 841 842 842 844 845 846 848 849 849 851 852 853 854 855 856 856 857 858 858 859 860 861 861 862 862 863 864 864 864 864 865 865 866 866 866 866 866 866 866 866 866 867 866 865 866 866 866 866 866 866 866 866 865 864 863 863 862 861 860 859 860 860 861 861 861 861 861 861 861 860
810 812 814 816 819 821 823 825 827 829 830 832 833 835 837 838 839 840 841 843 844 845 846 847 848 849 850 852 853 854 855 856 856 857 857 857 858 859 860 860 861 862 862 862 862 863 863 863 864 864 864 864 864 864 865 865 865 865 864 864 864 864 864 865 865 865 865 864 864 862 860 859 858 858 858 858 858 859 860 860 860 860 860 860 860
807 808 811 813 815 818 820 822 824 825 827 829 830 832 834 835 836 838 839 840 841 843 844 845 846 848 849 850 852 853 853 854 855 855 856 856 856 857 857 858 858 859 860 860 860 861 861 861 862 862 863 863 863 863 863 864 863 863 863 863 863 863 863 863 864 864 864 864 864 862 860 858 857 857 856 856 857 858 859 859 859 859 859 859 859
803 804 807 809 812 815 816 819 820 822 824 825 827 828 830 831 833 834 836 837 839 840 842 844 845 846 848 848 849 850 851 852 852 853 854 854 855 855 855 856 856 857 857 858 858 859 859 859 860 860 861 861 861 861 862 862 862 861 861 861 862 862 862 862 863 863 863 864 864 863 861 860 858 857 856 855 856 858 858 858 858 858 858 858 858
798 800 803 806 809 811 813 815 817 818 820 821 822 824 826 828 829 831 833 835 837 838 839 841 843 844 845 846 847 848 849 850 850 851 851 852 852 853 853 853 854 854 855 856 856 857 857 857 858 858 859 859 859 859 860 860 861 861 860 860 860 861 861 862 862 862 862 863 864 864 863 861 859 858 858 856 855 856 857 857 858 858 857 857 857
793 795 798 801 804 806 809 811 812 813 815 817 818 821 822 825 827 829 831 833 834 836 837 838 840 841 842 843 844 845 846 847 848 848 849 849 850 850 851 851 852 852 853 853 854 854 855 855 855 856 856 857 857 857 858 858 859 859 859 859 859 860 860 861 861 861 862 862 863 863 864 863 861 861 861 858 855 855 856 856 857 857 857 856 856
789 791 794 796 799 802 804 805 807 808 811 813 816 818 820 822 824 827 828 830 832 833 834 835 837 838 839 840 842 843 844 844 845 846 847 847 848 848 849 849 849 850 850 851 851 852 852 853 853 854 854 854 855 855 856 857 857 858 858 857 857 858 859 859 860 861 861 861 862 862 862 862 862 862 862 861 857 855 855 856 856 856 856 856 855
784 787 789 791 793 796 799 801 802 805 807 810 813 815 817 820 822 824 825 827 829 830 831 832 834 835 836 838 839 840 841 842 843 844 844 845 846 846 847 848 848 848 848 848 849 849 850 850 851 852 852 852 853 854 854 855 855 856 856 855 856 857 857 858 859 860 860 860 861 861 861 861 861 861 862 862 860 857 855 856 856 855 855 855 855
779 781 783 786 788 790 793 797 799 802 804 806 809 812 814 816 819 821 822 824 825 827 828 829 831 832 834 835 837 838 839 840 841 841 842 843 844 845 845 846 846 846 847 846 846 847 847 848 849 850 850 851 851 852 853 853 854 854 854 853 854 855 856 857 857 858 859 859 860 860 860 860 860 860 861 861 860 858 855 855 856 855 854 854 854
776 777 779 781 783 786 789 793 797 799 801 803 806 809 811 813 816 818 819 821 822 824 825 827 828 830 831 833 834 835 836 838 839 840 841 841 842 843 843 843 844 844 844 844 844 845 845 846 847 848 848 849 849 850 851 851 852 853 852 852 853 853 855 856 856 857 858 858 859 859 859 859 859 859 860 859 859 858 856 855 855 854 853 853 853
773 775 777 779 781 784 786 790 794 796 799 801 804 806 808 810 813 815 817 818 819 821 823 824 826 827 829 831 832 833 834 835 837 838 839 839 840 840 841 841 842 842 842 843 843 843 843 844 844 845 846 846 847 848 849 849 850 851 851 851 852 852 853 854 855 856 856 857 857 857 858 858 858 858 858 858 858 857 856 855 855 854 853 853 853
770 773 775 778 781 783 785 788 791 794 796 799 801 803 805 807 809 812 813 815 817 819 821 822 824 825 827 828 829 830 832 833 835 836 836 837 837 838 839 839 839 840 841 841 841 841 841 841 842 843 843 844 845 846 847 847 848 849 849 850 851 851 852 853 854 854 855 855 856 856 857 857 857 857 857 858 857 857 857 856 855 855 853 852 852
767 771 774 776 779 781 783 786 788 791 793 796 799 800 803 805 806 808 810 813 815 816 818 820 821 823 824 826 827 828 830 831 832 833 834 835 836 836 836 837 837 838 839 839 840 840 839 839 839 840 841 842 843 844 844 845 846 847 848 848 849 850 850 851 852 853 854 854 855 855 855 856 856 856 856 857 856 856 856 855 855 855 853 851 852
767 770 773 775 777 779 782 784 786 789 791 793 796 798 800 802 803 805 808 810 812 814 816 818 819 820 822 823 824 826 828 829 830 831 832 833 833 834 834 835 835 836 837 837 837 838 837 837 837 838 839 840 841 841 842 843 844 845 846 847 848 848 849 849 850 851 852 852 853 853 854 854 854 855 855 855 856 856 856 855 854 854 853 851 851
768 771 773 775 777 779 781 783 785 787 789 791 793 795 797 799 801 803 805 808 810 812 814 815 816 818 819 821 822 824 825 826 828 829 830 830 831 831 832 832 833 834 834 835 835 835 835 835 835 836 837 838 839 839 840 841 842 843 844 845 846 846 847 848 849 850 850 851 851 852 852 853 853 853 854 854 854 854 855 855 854 854 853 851 850
769 771 774 775 777 778 780 782 784 786 787 789 790 792 794 796 798 800 803 806 808 809 811 812 814 816 817 818 820 821 823 824 826 827 827 828 828 829 829 830 831 832 832 833 832 832 832 832 833 834 835 836 837 838 838 840 841 842 843 843 844 845 846 847 847 848 849 849 850 850 850 851 851 852 852 853 853 853 853 853 853 853 853 851 850
769 771 772 774 776 777 778 780 781 783 785 786 788 790 791 793 795 798 801 804 806 807 809 810 812 813 814 816 818 819 821 822 824 824 824 825 826 827 828 829 829 830 830 830 829 830 830 830 831 832 833 834 835 836 837 838 839 840 841 842 843 843 844 845 846 847 847 848 848 848 848 849 850 850 851 851 851 851 852 852 852 852 852 852 850
770 771 772 773 774 776 777 779 780 781 783 784 786 788 790 791 793 795 798 801 803 805 807 808 809 811 812 814 816 818 819 821 821 822 822 823 824 825 825 826 826 827 827 827 827 828 828 829 830 831 832 832 833 834 835 836 837 838 839 840 841 842 843 844 844 845 846 846 846 846 847 847 848 848 849 849 849 850 850 850 851 851 851 851 850
769 769 771 771 772 773 775 777 778 780 782 783 785 786 788 790 792 794 797 799 801 803 804 806 807 809 811 813 815 816 817 818 819 819 820 821 822 822 823 823 824 824 824 825 825 826 827 827 828 829 830 831 831 833 834 835 835 836 837 838 839 840 841 842 843 843 844 844 844 845 845 845 846 846 847 847 848 848 848 848 849 849 849 849 848
765 767 768 768 770 771 773 775 776 778 780 781 783 784 786 788 790 793 796 797 799 801 802 804 806 808 809 811 813 814 815 816 817 818 819 819 820 821 821 821 822 822 822 823 824 824 825 826 827 828 829 829 830 831 832 833 834 835 836 837 838 838 839 840 841 841 842 842 842 843 843 843 844 844 845 845 846 846 846 847 847 847 847 847 846
762 763 764 765 768 770 771 774 775 777 779 779 780 782 784 787 789 791 793 795 797 798 800 802 804 806 807 809 810 812 813 814 815 817 817 818 819 819 819 819 819 820 821 822 822 823 824 825 826 826 827 828 829 830 831 831 832 833 834 835 836 837 837 838 839 839 839 840 840 840 841 841 842 842 843 843 844 844 844 844 845 845 845 845 845
758 760 762 764 766 767 770 771 773 775 776 777 779 780 782 784 787 789 791 792 794 796 798 800 801 803 805 807 808 809 811 812 813 815 816 817 817 817 817 817 818 819 819 820 821 822 823 823 824 825 826 827 828 829 829 830 831 831 832 833 834 835 835 836 837 837 837 838 838 838 838 839 840 840 841 841 841 842 842 842 842 843 842 843 843
754 757 760 762 763 765 767 769 771 772 773 775 776 778 780 782 785 787 788 790 792 793 796 797 799 800 802 805 806 807 809 810 812 813 814 815 815 815 815 816 817 817 818 819 820 821 822 822 823 824 824 825 826 827 828 828 829 830 831 832 832 833 833 834 834 835 835 836 836 836 836 837 838 838 838 839 839 839 840 840 840 841 840 840 840
752 755 757 760 762 764 765 766 767 769 770 772 774 775 778 780 782 784 785 787 789 791 793 794 796 799 801 803 804 805 807 808 810 812 812 813 813 813 814 814 815 816 817 818 819 819 820 821 821 822 823 824 825 826 826 827 827 828 829 830 830 831 831 832 832 833 833 834 834 834 834 834 835 836 836 836 837 837 837 838 838 838 838 837 838
750 752 754 758 759 760 761 762 763 765 767 769 771 773 775 777 779 781 783 785 787 788 790 792 794 797 799 800 802 803 805 806 808 809 809 810 810 811 812 813 813 814 815 816 817 818 819 819 820 821 822 823 823 824 824 825 825 826 827 828 828 829 829 829 830 830 831 831 831 831 832 832 833 833 833 834 834 834 835 835 835 835 836 835 835
746 748 750 753 754 755 757 759 760 762 764 766 768 770 772 774 776 778 780 782 783 785 787 790 792 795 796 798 799 801 802 804 806 807 807 807 808 809 810 811 812 813 813 814 815 816 817 817 818 819 820 821 821 822 822 823 823 824 825 825 826 826 827 827 827 828 828 829 829 829 829 830 830 830 830 831 831 832 832 832 833 833 833 833 832
743 745 747 749 751 753 754 756 757 759 761 763 765 767 769 771 773 775 777 779 781 783 785 788 790 792 793 795 796 798 800 802 803 804 804 805 806 807 808 809 810 811 811 812 813 814 815 815 816 817 818 819 819 820 820 820 821 822 823 823 824 824 824 825 825 825 826 826 826 826 827 827 827 827 827 828 828 829 829 829 829 830 830 830 829
741 743 744 746 748 750 752 754 755 756 758 760 762 764 766 767 770 773 774 776 778 780 783 785 788 789 790 791 793 796 798 799 800 801 802 804 804 805 806 807 808 808 809 810 811 811 812 812 814 815 815 816 816 817 817 818 819 820 820 821 821 821 822 822 822 822 823 823 823 823 824 824 824 824 824 825 825 825 826 826 826 826 827 826 826
738 739 740 742 743 746 748 750 752 754 755 757 759 761 763 765 767 770 772 773 775 778 780 782 784 786 787 789 791 794 795 797 798 799 801 802 802 803 804 804 805 806 807 808 808 809 809 810 811 812 813 813 814 814 815 815 816 817 817 818 818 818 819 819 819 819 820 820 820 820 821 821 821 821 821 821 821 822 822 822 822 823 823 823 822
735 735 736 738 740 742 744 747 749 751 752 753 755 757 759 762 764 767 769 771 773 775 777 779 781 783 785 787 789 791 793 794 796 798 799 799 800 801 802 802 803 803 804 805 805 806 807 808 809 809 810 811 811 811 812 813 814 815 815 815 815 816 816 816 816 816 816 816 817 817 817 817 817 817 817 817 818 818 818 818 818 818 819 819 818
731 732 732 734 736 738 741 743 745 746 748 750 751 753 756 759 761 764 766 768 770 772 774 776 778 780 782 784 786 788 790 792 794 795 796 797 798 799 799 800 800 801 802 802 803 804 804 805 806 807 807 808 808 809 810 811 812 812 813 813 812 812 812 812 812 812 812 812 813 813 813 813 813 813 813 813 813 814 814 814 815 815 815 814 814
728 729 730 731 733 735 737 738 739 742 744 746 748 750 753 755 758 761 763 766 768 769 771 773 775 777 779 781 784 786 788 790 791 793 794 794 795 796 797 797 797 798 799 799 800 801 801 802 803 804 804 804 805 806 807 808 809 809 810 810 809 809 808 808 808 808 807 808 808 808 808 808 808 808 809 809 809 809 810 810 811 811 811 810 810
726 726 728 729 729 730 731 732 735 737 739 742 745 747 750 752 755 758 761 763 765 767 769 771 772 775 777 779 782 783 785 787 789 790 791 792 793 793 794 794 795 795 796 797 797 798 799 800 800 801 801 801 801 802 804 805 805 806 806 806 806 805 805 804 804 804 803 803 803 803 803 803 803 804 804 804 804 804 805 805 806 806 806 806 805
726 726 727 727 726 727 728 729 732 734 737 740 743 745 748 751 754 756 758 760 762 764 766 768 770 772 774 777 779 781 783 785 786 788 789 789 790 790 791 791 792 793 793 794 794 795 796 797 797 797 798 798 798 799 800 801 802 802 803 802 802 801 801 800 800 800 800 800 799 799 799 799 799 799 800 799 799 799 799 800 800 800 800 800 800
726 726 725 725 724 725 726 727 730 732 736 739 742 744 747 749 752 754 756 758 759 761 763 765 767 770 772 774 776 778 780 782 784 785 786 786 787 787 788 789 789 790 790 791 791 792 793 793 794 794 794 794 795 796 797 798 798 799 799 799 798 797 797 796 796 796 796 795 796 796 795 795 795 795 796 796 795 795 794 794 794 794 794 794 794
726 725 723 722 722 722 724 726 728 731 734 737 739 742 745 747 750 752 754 756 757 759 760 762 765 767 769 772 774 776 778 779 781 782 783 784 784 784 785 786 786 787 787 788 789 789 790 790 791 791 791 791 791 793 794 795 795 795 795 795 794 793 793 792 791 791 791 791 791 791 790 790 790 790 791 792 792 791 790 789 788 788 788 788 787
726 725 722 721 720 721 722 724 726 729 732 734 737 740 742 745 747 749 751 753 754 756 758 760 763 765 767 769 771 773 775 776 778 779 780 780 781 781 782 783 783 784 784 785 786 786 787 788 788 788 788 788 788 789 790 791 791 792 791 791 790 789 788 787 786 786 787 786 786 786 786 786 785 785 786 787 788 788 786 785 783 783 783 782 781
726 724 722 721 720 720 722 723 725 728 730 732 735 737 739 742 744 746 749 750 752 753 756 758 760 762 764 766 768 770 772 773 775 776 776 777 778 779 779 780 780 781 781 782 783 784 784 784 784 785 785 785 784 785 786 787 788 788 788 787 786 785 784 783 782 782 782 781 781 781 782 781 780 780 781 782 782 783 782 780 779 779 777 776 776
726 724 723 722 721 721 722 723 724 727 728 730 732 735 737 740 742 744 746 748 749 751 753 755 757 760 762 764 766 767 769 770 771 772 773 774 775 776 776 777 778 778 779 780 780 780 781 781 781 781 782 782 781 781 782 783 784 784 784 784 783 782 780 779 778 777 777 777 776 776 776 776 775 775 776 776 777 777 776 775 775 774 772 770 771
726 725 724 723 723 722 722 723 724 725 727 729 731 733 736 737 740 742 744 745 747 749 751 754 756 758 760 761 763 765 766 767 768 769 771 771 772 773 774 774 775 775 776 777 777 777 777 777 778 778 778 779 778 778 778 779 780 780 780 780 779 778 776 775 774 773 772 772 771 771 771 771 771 771 771 771 770 770 769 769 768 767 765 764 766
727 726 725 725 724 723 722 722 723 724 726 728 730 732 734 736 738 740 741 743 745 748 750 752 754 756 758 759 760 762 763 765 766 767 768 769 769 770 771 771 772 773 773 773 774 774 774 774 774 775 775 775 775 775 775 775 776 776 776 776 775 773 772 771 770 769 768 767 766 766 765 766 767 767 766 766 764 764 763 763 762 761 759 759 761
727 725 725 724 724 723 723 723 723 724 725 726 728 731 733 735 737 737 739 742 745 747 749 751 752 754 755 757 758 759 760 762 763 764 765 765 766 767 768 768 769 770 770 770 770 771 771 770 771 771 771 771 771 771 771 770 771 771 771 772 771 769 768 768 765 764 763 762 761 761 761 761 762 762 761 761 760 759 758 757 757 756 755 755 755
725 724 723 723 723 723 723 723 723 724 724 725 727 730 732 733 735 736 738 741 743 746 748 749 751 752 753 754 756 757 758 759 760 761 762 762 763 764 765 765 766 767 767 767 767 768 768 767 767 767 767 767 767 767 766 766 766 766 766 766 766 765 765 764 761 759 758 757 757 756 756 757 758 757 757 756 755 753 753 752 752 751 751 751 751
724 722 721 721 722 722 723 723 723 724 724 725 727 729 730 732 733 735 737 740 742 744 746 748 749 750 751 752 753 754 755 756 757 758 759 760 760 761 762 762 763 764 764 764 764 765 765 764 763 763 762 762 762 763 762 761 761 761 761 761 761 761 760 759 757 755 753 753 752 752 752 753 753 752 751 750 749 748 747 747 747 747 747 747 746
723 721 720 720 720 720 721 722 722 723 724 725 726 728 729 731 732 734 736 738 740 742 744 746 747 748 749 750 751 752 753 753 754 755 756 757 757 758 759 760 760 761 762 761 761 762 762 761 761 759 759 759 759 759 758 758 758 758 757 757 757 756 756 755 753 751 750 749 749 748 748 748 747 747 746 745 744 743 744 743 743 744 744 743 743
722 719 719 719 719 720 720 720 720 721 723 724 726 727 728 730 731 733 734 736 738 740 742 744 745 746 747 748 749 749 750 751 752 753 753 754 755 755 756 757 758 758 759 759 759 759 759 758 757 756 755 755 756 756 755 754 754 754 753 753 753 752 751 751 749 748 747 746 745 745 744 743 742 742 742 741 740 740 740 740 739 740 740 739 739
720 718 718 718 718 719 719 719 720 720 722 724 725 726 728 729 730 731 733 734 736 738 740 741 742 743 744 745 746 747 748 748 749 750 751 751 752 752 753 754 754 755 756 756 756 756 756 755 754 753 752 752 752 752 751 750 751 750 749 749 748 747 747 746 745 744 743 742 741 740 740 739 738 738 737 737 736 735 736 735 735 735 735 734 734
719 717 717 717 717 718 718 718 719 720 722 723 725 726 728 729 730 730 731 733 735 736 738 739 740 741 742 743 743 744 745 746 747 747 748 748 749 750 750 750 750 751 752 752 752 752 752 751 750 750 749 748 748 748 747 747 747 746 745 745 744 743 742 741 740 739 738 737 736 736 735 734 734 733 732 732 731 731 731 730 730 730 730 729 729
719 717 717 717 717 717 718 719 719 720 722 723 724 726 727 728 729 729 730 731 733 735 736 737 738 739 740 740 741 742 742 743 744 744 745 745 746 746 747 746 747 747 748 748 748 748 748 747 747 747 746 745 744 744 744 744 744 743 742 741 740 739 738 736 735 735 734 733 732 731 730 730 729 729 728 727 726 726 726 725 725 725 725 725 724
720 718 718 718 718 719 719 720 720 721 722 723 724 725 726 727 728 728 728 730 731 733 734 735 736 736 737 738 739 739 740 741 741 742 742 743 743 744 744 744 744 744 744 745 745 744 744 744 743 742 742 741 740 739 740 740 740 738 738 736 735 734 733 732 732 731 731 729 728 726 725 725 724 724 723 722 722 721 721 720 719 720 719 719 719
722 720 720 720 720 720 720 720 721 721 722 723 724 724 725 726 726 726 727 728 729 730 732 732 733 733 734 735 736 737 738 738 739 739 740 740 740 741 741 741 741 741 741 742 742 741 741 741 740 738 737 736 735 734 735 735 734 733 733 732 731 730 730 729 729 729 727 725 723 722 721 720 719 719 717 717 716 716 715 715 714 714 714 713 713